Weather Roundup
Issued by NWS Springfield, MO

Home | Current Version | Previous Version | Text Only | Print | Product List | Glossary On
Versions: 1 2 3 4 5 6 7 8 9 10 11 12 13 14 15 16 17 18 19 20 21 22 23 24 25 26 27 28 29 30 31 32 33 34 35 36 37 38 39 40 41 42 43 44 45 46 47 48 49 50
000
NZUS99 KSGF 301207
HRRSGF

HOURLY WEATHER
NATIONAL WEATHER SERVICE SPRINGFIELD MO
700 AM CDT WED JUL 30 2014

......SGF CWA......

CITY           SKY/WX    TMP DP  RH WIND       PRES   REMARKS
SPRINGFIELD    CLOUDY    68  60  75 S5        30.09S
6HR MIN TEMP:  67; 6HR MAX TEMP:  73; 6HR PCP: TRACE;

JOPLIN         LGT RAIN  67  64  90 VRB5      30.10R FOG
6HR MIN TEMP:  66; 6HR MAX TEMP:  70; 6HR PCP:  0.03;

WEST PLAINS    PTCLDY    59  56  89 CALM      30.11S
6HR MIN TEMP:  58; 6HR MAX TEMP:  66;

ROLLA          CLOUDY    62  57  83 CALM      30.08S
6HR MIN TEMP:  58; 6HR MAX TEMP:  68;

OSAGE BEACH    CLOUDY    59  55  88 CALM      30.09S
BRANSON        CLOUDY    68  63  83 CALM      30.11R

......SURROUNDING SGF CWA......

CITY           SKY/WX    TMP DP  RH WIND       PRES   REMARKS
CHANUTE        CLOUDY    69  63  81 E5        30.09R
PARSONS        CLOUDY    70  62  76 NE3       30.09R
COFFEYVILLE    CLOUDY    69  64  84 E7        30.06S
EMPORIA        CLOUDY    65  62  90 NE12      30.10R
GROVE OK       CLOUDY    70  64  83 NE3       30.09R
ROGERS AR      CLOUDY    69  66  90 NE5       30.11S
SILOAM SPRINGS CLOUDY    66  57  72 CALM      30.11R
HARRISON AR    CLOUDY    66  64  93 S3        30.11R
NEAR YELLVILLE PTCLDY    64  61  88 CALM      30.10S

......KANSAS AND MISSOURI......

CITY           SKY/WX    TMP DP  RH WIND       PRES   REMARKS
KANSAS CTY INT CLOUDY    64  59  83 NE3       30.11S
DOWNTOWN KC    CLOUDY    68  59  73 CALM      30.09S
COLUMBIA       MOCLDY    63  59  87 CALM      30.10R
SEDALIA        CLOUDY    63  58  83 CALM      30.10S
ST JOSEPH      CLOUDY    61  60  97 N5        30.11S
ST LOUIS       MOCLDY    67  58  72 CALM      30.09S
SPIRIT OF STL  PTCLDY    60  58  92 CALM      30.08R
KIRKSVILLE     CLEAR     57  56  96 CALM      30.11S
WICHITA        CLOUDY    69  61  75 E3        30.07R
TOPEKA         CLOUDY    68  62  81 CALM      30.11R
OLATHE         CLOUDY    68  61  78 N5        30.09S

......TENNESSEE......

CITY           SKY/WX    TMP DP  RH WIND       PRES   REMARKS
MEMPHIS        MOCLDY    63  57  81 S3        30.11R
NASHVILLE      PTSUNNY   59  56  89 S3        30.11S

......ARKANSAS.......

CITY           SKY/WX    TMP DP  RH WIND       PRES   REMARKS
FAYETTEVILLE   MOCLDY    65  63  93 E3        30.10S
FT SMITH       CLOUDY    73  67  81 E7        30.07R
LITTLE ROCK    MOCLDY    67  62  84 CALM      30.11S

......OKLAHOMA.......

CITY           SKY/WX    TMP DP  RH WIND       PRES   REMARKS
TULSA          CLOUDY    75  67  76 S3        30.04R
PONCA CITY     LGT RAIN  72  68  87 CALM      30.06R
MCALESTER      LGT RAIN  72  68  87 CALM      30.09R FOG
OKLAHOMA CITY  LGT RAIN  68  64  87 S6        30.08R

......IOWA............

CITY           SKY/WX    TMP DP  RH WIND       PRES   REMARKS
DES MOINES     PTCLDY    59  54  83 CALM      30.10S
QUAD CITIES    SUNNY     58  55  90 CALM      30.06R

......ILLINOIS........

CITY           SKY/WX    TMP DP  RH WIND       PRES   REMARKS
QUINCY         CLEAR     58  56  93 SW3       30.08S FOG
CHICAGO        PTSUNNY   63  54  72 W7        30.02S



USA.gov is the U.S. government's official web portal to all federal, state and local government web resources and services.